Regional Weather Roundup
Issued by NWS

Home | Current Version | Previous Version | Graphics & Text | Print | Product List | Glossary On
Versions: 1 2 3 4 5 6 7 8 9 10 11 12 13 14 15 16 17 18 19 20 21 22 23 24 25 26 27 28 29 30 31 32 33 34 35 36 37 38 39 40 41 42 43 44 45 46 47 48 49 50
000
ASUS43 KBIS 270220
RWRND

NORTH DAKOTA REGIONAL WEATHER ROUNDUP
NATIONAL WEATHER SERVICE BISMARCK ND
800 PM CST MON JAN 26 2015

NOTE: "FAIR" INDICATES FEW OR NO CLOUDS BELOW 12,000 FEET WITH NO
SIGNIFICANT WEATHER AND/OR OBSTRUCTIONS TO VISIBILITY.


NDZ001>003-009>011-017-270300-
NORTHWEST NORTH DAKOTA

CITY           SKY/WX    TMP DP  RH WIND       PRES   REMARKS
WILLISTON      CLEAR     35  30  82 CALM      29.90S
MINOT          MOCLDY    32  29  88 S6        29.93S
MINOT AFB      MOCLDY    33  33  99 SW7       29.93S
$$

NDZ018>021-031>035-040>046-270300-
SOUTHWEST NORTH DAKOTA

CITY           SKY/WX    TMP DP  RH WIND       PRES   REMARKS
BISMARCK       PTCLDY    32  31  96 E6        29.98S
DICKINSON      PTCLDY    34  29  82 S7        29.90F
GARRISON         N/A     34  31  88 CALM      29.95R
HETTINGER ARPT CLEAR     40  32  73 SE5       29.95S
$$

NDZ004>008-012>016-024-026-027-054-270300-
NORTHEAST NORTH DAKOTA

CITY           SKY/WX    TMP DP  RH WIND       PRES   REMARKS
GRAND FORKS    MOCLDY    28  25  88 CALM      29.99R
GRND FRKS AFB  CLOUDY    28  25  89 E3        29.99S
DEVILS LAKE    MOCLDY    34  28  80 SW3       29.96R
$$

NDZ022-023-025-028>030-036>039-047>053-270300-
SOUTHEAST NORTH DAKOTA

CITY           SKY/WX    TMP DP  RH WIND       PRES   REMARKS
FARGO          PTCLDY    30  25  81 N6        29.99S
JAMESTOWN      CLEAR     32  29  88 SW5       29.97R
$$



USA.gov is the U.S. government's official web portal to all federal, state and local government web resources and services.